This demonstration page uses our WeatherBlox Daily Observations layout. Learn more.

Left ArrowRight Arrow

41.55636, -103.73856

Hourly Observations for May 17, 2019

Temp ( °F °C ) Dew Point ( °F °C ) Humidity (%) Winds ( mph kmh ) Pressure ( in mb ) Visibility ( mi km ) Precip ( " mm )
6:56 pm 18:56 undefined 73 22.6 42 5.4 33 33 ESE 16 26 29.58 1002 10 16 0.00 0.00
7:56 pm 19:56 Mostly Clear with Thunderstorms 65 18.6 49 9.7 56 56 S 14 22 29.61 1003 8 13 0.02 0.51
8:56 pm 20:56 undefined 59 14.9 47 8.5 66 66 E 10 17 29.60 1002 10 16 0.02 0.51
9:56 pm 21:56 undefined 59 15.2 50 10.2 72 72 E 16 26 29.60 1002 10 16 0.00 0.00
10:56 pm 22:56 undefined 58 14.2 52 11.2 82 82 ESE 12 19 29.59 1002 10 16 0.00 0.00
11:56 pm 23:56 undefined 55 12.6 51 10.3 86 86 ESE 10 17 29.59 1002 10 16 0.00 0.00
12:56 am 00:56 undefined 54 12.1 51 10.7 91 91 E 13 20 29.57 1001 10 16 0.00 0.00
2:56 am 02:56 undefined 53 11.6 51 10.6 94 94 E 13 20 29.55 1001 9 14 0.00 0.00
3:56 am 03:56 Mostly Clear with Mist and Fog 52 11.3 51 10.6 96 96 ENE 8 13 29.54 1000 3 4 0.00 0.00
5:56 am 05:56 Partly Cloudy with Fog 52 10.9 51 10.3 96 96 E 12 19 29.51 999 5 8 0.00 0.00
7:56 am 07:56 Partly Cloudy with Light Rain 50 9.8 49 9.3 97 97 NE 8 13 29.55 1001 1 2 0.00 0.00
8:56 am 08:56 Partly Cloudy with Light Rain 49 9.5 48 9 97 97 NE 10 17 29.54 1001 5 8 0.01 0.25
9:56 am 09:56 Partly Cloudy with Fog 50 9.8 49 9.3 97 97 ENE 10 17 29.54 1000 5 8 0.00 0.00
10:56 am 10:56 Partly Cloudy with Mist and Fog 51 10.4 50 10 97 97 E 10 17 29.54 1000 2 4 0.00 0.00
11:56 am 11:56 undefined 53 11.4 51 10.7 96 96 ENE 6 9 29.54 1001 10 16 0.00 0.00
12:58 pm 12:58 Partly Cloudy with Mist and Fog 51 10.8 50 9.9 94 94 ENE 8 13 29.51 999 6 10 0.00 0.00
2:58 pm 14:58 undefined 51 10.7 48 8.9 89 89 NE 10 17 29.52 1000 10 16 0.00 0.00
3:58 pm 15:58 Partly Cloudy with Light Rain 48 8.9 46 7.9 94 94 N 12 19 29.57 1001 7 11 0.01 0.25
4:58 pm 16:58 Partly Cloudy with Rain 45 7.2 43 6.1 93 93 WNW 20 31 29.66 1004 7 11 0.13 3.30
5:58 pm 17:58 Partly Cloudy with Rain/Snow 44 6.8 42 5.3 90 90 NNW 18 30 29.60 1002 4 6 0.23 5.84

Powered by AerisWeather